User: anonymous   Login
Location: Caltech
(34.1382°N, 118.1253°W)
Time: 11:16:37
(UTC-08:00)
Language:

JAS-2 - Orbit

View from above orbital plane
View from above orbital plane
View from above satellite
View from above satellite

Ground track
Ground track

The orbit data is extracted from the following two-line orbital elements,

1 24278U 96046B   17016.94664732 -.00000024 +00000-0 +11763-4 0  9993
2 24278 098.5829 280.1639 0350619 009.3032 351.4384 13.53074040008177
Epoch (UTC): 16 January 2017 22:43:10
Eccentricity: 0.0350619
inclination: 98.5829°
perigee height: 800 km
apogee height: 1322 km
right ascension of ascending node: 280.1639°
argument of perigee: 9.3032°
revolutions per day: 13.53074040
mean anomaly at epoch: 351.4384°
orbit number at epoch: 817

The dashed part of the orbit path shows where the satellite is in the earth's shadow,  

DLR